• In Uzbekistan
  • List of Countries
  • For 7 days
  • Water Temperature
  • Satellite Maps
  • Weather Map
  • Weather Widgets
  • user-avatar
    Login

    Hourly Weather Salta

    Today, 21 August, Tuesday

    Time Temperature Precipitation Wind Pressure Humidity
    00:00 +6°C° 0 mm 1 mps 653 mmHg 57%
    01:00 +6°C° 0 mm 1 mps 653 mmHg 58%
    02:00 +6°C° 0 mm 1 mps 652 mmHg 59%
    03:00 +5°C° 0 mm 1 mps 652 mmHg 59%
    04:00 +5°C° 0 mm 1 mps 652 mmHg 58%
    05:00 +4°C° 0 mm 2 mps 652 mmHg 58%
    06:00 +6°C° 0 mm 1 mps 653 mmHg 54%
    07:00 +7°C° 0 mm 1 mps 653 mmHg 50%
    08:00 +9°C° 0 mm 1 mps 654 mmHg 46%
    09:00 +11°C° 0 mm 1 mps 655 mmHg 39%
    10:00 +14°C° 0 mm 2 mps 655 mmHg 33%
    11:00 +17°C° 0 mm 2 mps 656 mmHg 26%
    12:00 +18°C° 0 mm 2 mps 656 mmHg 25%
    13:00 +19°C° 0 mm 2 mps 655 mmHg 23%
    14:00 +19°C° 0 mm 2 mps 655 mmHg 22%
    15:00 +19°C° 0 mm 2 mps 654 mmHg 24%
    16:00 +18°C° 0 mm 2 mps 654 mmHg 25%
    17:00 +18°C° 0 mm 2 mps 653 mmHg 27%
    18:00 +16°C° 0 mm 2 mps 653 mmHg 32%
    19:00 +14°C° 0 mm 1 mps 653 mmHg 37%
    20:00 +12°C° 0 mm 1 mps 653 mmHg 42%
    21:00 +11°C° 0 mm 1 mps 653 mmHg 43%
    22:00 +11°C° 0 mm 1 mps 653 mmHg 44%
    23:00 +10°C° 0 mm 1 mps 653 mmHg 45%

    Tomorrow, 22 August, Wednesday

    Time Temperature Precipitation Wind Pressure Humidity
    00:00 +10°C° 0 mm 1 mps 653 mmHg 45%
    01:00 +10°C° 0 mm 1 mps 653 mmHg 45%
    02:00 +9°C° 0 mm 1 mps 652 mmHg 45%
    03:00 +9°C° 0 mm 1 mps 652 mmHg 44%
    04:00 +9°C° 0 mm 1 mps 652 mmHg 44%
    05:00 +9°C° 0 mm 1 mps 652 mmHg 44%
    06:00 +10°C° 0 mm 1 mps 652 mmHg 41%
    07:00 +11°C° 0 mm 1 mps 653 mmHg 37%
    08:00 +13°C° 0 mm 1 mps 654 mmHg 34%
    09:00 +15°C° 0 mm 2 mps 654 mmHg 29%
    10:00 +18°C° 0 mm 2 mps 654 mmHg 24%
    11:00 +20°C° 0 mm 2 mps 655 mmHg 19%
    12:00 +21°C° 0 mm 3 mps 654 mmHg 17%
    13:00 +22°C° 0 mm 3 mps 653 mmHg 16%
    14:00 +24°C° 0 mm 3 mps 652 mmHg 15%
    15:00 +24°C° 0 mm 3 mps 652 mmHg 16%
    16:00 +22°C° 0 mm 3 mps 651 mmHg 17%
    17:00 +22°C° 0 mm 3 mps 650 mmHg 18%
    18:00 +19°C° 0 mm 2 mps 650 mmHg 23%
    19:00 +17°C° 0 mm 2 mps 650 mmHg 28%
    20:00 +15°C° 0 mm 2 mps 649 mmHg 32%
    21:00 +14°C° 0 mm 2 mps 649 mmHg 34%
    22:00 +14°C° 0 mm 2 mps 649 mmHg 36%
    23:00 +13°C° 0 mm 2 mps 649 mmHg 38%

    Day after tomorrow, 23 August, Thursday

    Time Temperature Precipitation Wind Pressure Humidity
    00:00 +13°C° 0 mm 2 mps 649 mmHg 39%
    01:00 +12°C° 0 mm 2 mps 648 mmHg 39%
    02:00 +12°C° 0 mm 2 mps 648 mmHg 40%
    03:00 +12°C° 0 mm 2 mps 648 mmHg 39%
    04:00 +12°C° 0 mm 2 mps 647 mmHg 39%
    05:00 +12°C° 0 mm 2 mps 647 mmHg 38%
    06:00 +13°C° 0 mm 2 mps 647 mmHg 35%
    07:00 +15°C° 0 mm 2 mps 648 mmHg 31%
    08:00 +16°C° 0 mm 2 mps 648 mmHg 28%
    09:00 +19°C° 0 mm 2 mps 649 mmHg 23%
    10:00 +23°C° 0 mm 2 mps 650 mmHg 18%
    11:00 +27°C° 0 mm 2 mps 650 mmHg 13%
    12:00 +28°C° 0 mm 2 mps 650 mmHg 12%
    13:00 +29°C° 0 mm 3 mps 649 mmHg 10%
    14:00 +30°C° 0 mm 3 mps 649 mmHg 9%
    15:00 +29°C° 0 mm 3 mps 649 mmHg 11%
    16:00 +29°C° 0 mm 3 mps 649 mmHg 12%
    17:00 +28°C° 0 mm 3 mps 648 mmHg 14%
    18:00 +25°C° 0 mm 2 mps 648 mmHg 18%
    19:00 +23°C° 0 mm 2 mps 648 mmHg 23%
    20:00 +20°C° 0 mm 1 mps 648 mmHg 28%
    21:00 +19°C° 0 mm 2 mps 648 mmHg 29%
    22:00 +18°C° 0 mm 2 mps 648 mmHg 30%
    23:00 +17°C° 0 mm 2 mps 648 mmHg 31%

    24 August, Friday

    Time Temperature Precipitation Wind Pressure Humidity
    00:00 +17°C° 0 mm 2 mps 648 mmHg 29%
    01:00 +17°C° 0 mm 2 mps 648 mmHg 28%
    02:00 +17°C° 0 mm 2 mps 648 mmHg 26%
    03:00 +17°C° 0 mm 2 mps 648 mmHg 25%
    04:00 +16°C° 0 mm 2 mps 649 mmHg 25%
    05:00 +16°C° 0 mm 3 mps 649 mmHg 25%
    06:00 +16°C° 0 mm 3 mps 651 mmHg 30%
    07:00 +16°C° 0 mm 3 mps 652 mmHg 35%
    08:00 +17°C° 0 mm 3 mps 653 mmHg 41%
    09:00 +18°C° 0 mm 3 mps 654 mmHg 40%
    10:00 +19°C° 0 mm 4 mps 654 mmHg 39%
    11:00 +20°C° 0 mm 4 mps 655 mmHg 38%
    12:00 +20°C° 0 mm 4 mps 655 mmHg 37%
    13:00 +20°C° 0 mm 4 mps 655 mmHg 37%
    14:00 +21°C° 0 mm 4 mps 654 mmHg 37%
    15:00 +19°C° 0 mm 4 mps 654 mmHg 39%
    16:00 +18°C° 0 mm 4 mps 654 mmHg 40%
    17:00 +17°C° 0 mm 4 mps 654 mmHg 42%
    18:00 +16°C° 0 mm 3 mps 655 mmHg 44%
    19:00 +14°C° 0 mm 2 mps 655 mmHg 46%
    20:00 +12°C° 0 mm 1 mps 656 mmHg 48%
    21:00 +12°C° 0 mm 1 mps 656 mmHg 48%
    22:00 +12°C° 0 mm 1 mps 656 mmHg 48%
    23:00 +11°C° 0 mm 1 mps 656 mmHg 48%

    25 August, Saturday

    Time Temperature Precipitation Wind Pressure Humidity
    00:00 +11°C° 0 mm 1 mps 655 mmHg 48%
    01:00 +10°C° 0 mm 1 mps 655 mmHg 47%
    02:00 +10°C° 0 mm 1 mps 655 mmHg 47%
    03:00 +9°C° 0 mm 1 mps 654 mmHg 46%
    04:00 +9°C° 0 mm 1 mps 654 mmHg 46%
    05:00 +8°C° 0 mm 1 mps 654 mmHg 46%
    06:00 +9°C° 0 mm 1 mps 655 mmHg 42%
    07:00 +11°C° 0 mm 1 mps 655 mmHg 38%
    08:00 +12°C° 0 mm 1 mps 656 mmHg 35%
    09:00 +14°C° 0 mm 1 mps 656 mmHg 31%
    10:00 +16°C° 0 mm 2 mps 657 mmHg 27%
    11:00 +18°C° 0 mm 2 mps 657 mmHg 24%
    12:00 +19°C° 0 mm 2 mps 657 mmHg 23%
    13:00 +20°C° 0 mm 2 mps 656 mmHg 23%
    14:00 +21°C° 0 mm 3 mps 656 mmHg 22%
    15:00 +20°C° 0 mm 3 mps 655 mmHg 24%
    16:00 +20°C° 0 mm 2 mps 655 mmHg 25%
    17:00 +19°C° 0 mm 2 mps 655 mmHg 26%
    18:00 +17°C° 0 mm 2 mps 655 mmHg 30%
    19:00 +16°C° 0 mm 1 mps 655 mmHg 34%
    20:00 +14°C° 0 mm 1 mps 655 mmHg 38%
    21:00 +13°C° 0 mm 1 mps 655 mmHg 39%
    22:00 +13°C° 0 mm 1 mps 655 mmHg 41%
    23:00 +12°C° 0 mm 1 mps 655 mmHg 42%

    26 August, Sunday

    Time Temperature Precipitation Wind Pressure Humidity
    00:00 +12°C° 0 mm 1 mps 654 mmHg 42%
    01:00 +12°C° 0 mm 1 mps 653 mmHg 42%
    02:00 +12°C° 0 mm 1 mps 653 mmHg 42%
    03:00 +11°C° 0 mm 1 mps 653 mmHg 41%
    04:00 +11°C° 0 mm 1 mps 652 mmHg 41%
    05:00 +11°C° 0 mm 1 mps 652 mmHg 40%
    06:00 +13°C° 0 mm 1 mps 653 mmHg 37%
    07:00 +14°C° 0 mm 1 mps 653 mmHg 33%
    08:00 +15°C° 0 mm 1 mps 654 mmHg 30%
    09:00 +18°C° 0 mm 2 mps 654 mmHg 26%
    10:00 +20°C° 0 mm 2 mps 654 mmHg 21%
    11:00 +24°C° 0 mm 3 mps 655 mmHg 17%
    12:00 +25°C° 0 mm 3 mps 654 mmHg 16%
    13:00 +26°C° 0 mm 3 mps 653 mmHg 15%
    14:00 +27°C° 0 mm 3 mps 653 mmHg 13%
    15:00 +26°C° 0 mm 3 mps 652 mmHg 15%
    16:00 +25°C° 0 mm 3 mps 652 mmHg 16%
    17:00 +25°C° 0 mm 2 mps 652 mmHg 18%
    18:00 +21°C° 0 mm 2 mps 652 mmHg 22%
    19:00 +20°C° 0 mm 1 mps 651 mmHg 27%
    20:00 +18°C° 0 mm 1 mps 651 mmHg 31%
    21:00 +16°C° 0 mm 1 mps 651 mmHg 33%
    22:00 +15°C° 0 mm 1 mps 651 mmHg 34%
    23:00 +15°C° 0 mm 1 mps 651 mmHg 35%
    Show more